Location: Unspecified
(41.1637°N, 24.2901°E)
Time: 20:54:51
(UTC+01:00)

ISS - Pass Details

Date: 02 December 2024
Orbit: 411 x 421 km, 51.6° (Epoch: 02 December)

Event Time Altitude Azimuth Distance (km) Brightness Sun altitude
Rises 17:46:06 0° 298° (WNW) 2,371 0.9 -20.5°
Reaches altitude 10° 17:48:21 10° 287° (WNW) 1,503 -0.1 -20.9°
Maximum altitude 17:51:21 30° 225° (SW) 779 -1.9 -21.4°
Enters shadow 17:52:58 20° 178° (S) 1,036 -1.7 -21.7°
